Temp
73 73 74 74 74 74 74 75 74 75 77 79 80 81 81 82 84 80 74 82 81 82 83 84 83 83 83 83 82 82 82 82 82 82 82 81 81 81 81 81 81 81 81
71 71 73 75 75 76 76 75 75 76 77 78 80 79 83 83 81 77 76 76 82 82 82 83 83 83 83 83 83 82 82 82 82 81 81 81 81 80 80 80 80 81 80
70 71 73 73 75 77 78 78 78 78 78 80 78 80 80 83 79 79 76 77 80 82 82 82 82 80 81 82 83 82 82 81 81 81 81 81 81 80 80 80 80 80 80
73 72 72 73 75 79 76 76 75 77 75 76 74 75 78 77 79 79 78 77 75 79 79 77 82 78 79 81 82 81 81 80 80 80 80 81 81 80 80 80 80 80 80
75 72 71 72 78 74 75 76 75 74 74 74 76 76 77 76 76 81 76 76 76 77 76 80 80 78 79 81 83 78 79 78 79 79 80 80 80 80 80 80 80 79 79
73 72 72 72 74 74 74 74 73 74 73 73 78 79 77 77 76 75 76 77 74 75 76 76 75 76 79 80 81 79 79 80 80 80 80 80 79 80 80 80 79 79 79
73 71 72 72 74 73 74 74 73 74 73 73 71 73 74 75 74 75 74 75 75 76 75 76 75 74 75 79 80 81 81 81 81 80 80 80 79 79 79 79 79 79 79
72 73 71 71 73 73 74 74 73 72 72 73 70 69 67 71 74 76 74 74 74 76 76 78 77 77 75 74 76 79 80 80 80 81 81 80 79 79 78 78 78 79 79
73 72 73 73 74 74 74 74 74 72 70 71 74 70 66 64 67 73 76 76 76 75 76 76 78 78 75 75 77 79 80 78 80 81 81 79 79 79 78 78 78 78 78
74 75 76 75 75 74 73 74 76 74 71 69 71 74 72 71 67 64 70 74 74 77 78 77 79 79 76 75 77 78 78 76 78 80 81 81 80 79 78 79 78 78 78
74 75 76 73 73 74 73 74 74 73 73 71 71 70 70 70 70 66 64 69 72 74 75 75 76 76 75 74 73 75 77 77 78 78 79 80 81 80 79 79 79 78 78
74 74 74 73 73 73 72 72 74 74 72 72 72 71 70 68 67 66 65 66 68 72 73 74 74 72 72 72 76 76 78 77 76 75 76 78 80 81 81 80 80 80 79
72 72 72 72 71 72 72 70 71 73 74 72 73 71 69 70 70 68 66 67 67 72 74 70 72 75 76 73 74 77 77 74 74 74 74 75 77 78 79 79 80 80 81
73 74 74 72 72 72 72 71 69 72 74 72 72 71 71 70 70 69 68 68 64 66 67 69 70 71 72 72 72 76 73 73 72 72 72 72 74 75 77 78 78 78 79
76 72 73 72 71 70 72 73 72 72 72 71 72 71 70 70 70 69 69 68 64 61 62 68 70 75 75 74 75 74 72 72 71 71 71 70 71 73 73 74 75 75 75
73 72 72 72 72 72 72 72 71 71 70 69 68 67 67 68 68 69 68 68 67 64 61 65 68 70 72 75 75 72 72 72 71 70 69 69 69 70 71 71 72 72 72
71 71 71 70 69 69 69 69 70 71 67 65 65 63 64 64 64 64 66 67 66 66 64 65 67 70 69 69 69 70 71 69 68 69 69 68 69 69 69 70 69 69 69
69 68 67 67 68 68 68 67 68 69 66 65 63 62 61 65 61 61 62 62 63 65 66 64 65 66 65 68 69 68 68 71 67 69 68 68 67 67 66 66 66 65 64
66 65 65 65 66 68 69 68 70 68 63 63 62 61 60 60 60 60 61 61 62 63 62 63 62 63 64 64 65 66 65 63 67 72 69 67 67 66 65 64 63 62 61
64 63 63 62 63 64 65 68 68 67 63 63 62 62 63 61 60 59 60 59 60 61 60 59 60 60 61 63 63 61 62 64 62 68 68 67 68 68 66 65 65 63 61
63 62 61 60 61 63 66 63 63 61 60 60 60 62 62 67 68 66 60 59 58 58 58 57 56 56 57 59 58 61 60 59 62 61 61 62 62 62 65 66 67 65 63
62 61 59 59 59 65 68 68 63 60 60 59 58 59 61 63 63 67 68 68 64 58 57 56 56 56 55 56 57 57 56 56 55 60 58 59 59 59 62 64 66 65 63
60 59 58 58 57 60 66 67 66 58 57 56 56 56 62 63 61 60 64 65 64 65 64 57 55 55 55 56 56 56 56 55 55 58 58 56 58 59 61 64 65 64 63
59 59 58 57 58 60 64 65 65 56 54 54 54 54 55 56 58 58 57 57 58 60 60 60 58 58 57 57 56 56 56 56 56 58 58 55 58 61 59 60 64 64 63
59 58 56 56 57 56 62 63 61 56 56 55 56 56 56 56 62 62 56 56 57 58 62 64 63 63 63 63 63 56 55 52 52 54 57 55 56 57 61 59 63 63 60
59 57 55 55 60 58 62 62 60 57 55 56 57 58 63 60 61 59 55 54 55 56 57 58 57 58 61 60 64 57 55 52 51 51 55 53 53 52 50 54 55 57 58
MSLP
1018.48 1018.59 1018.57 1018.56 1018.58 1018.59 1018.50 1018.32 1018.25 1018.07 1017.77 1017.25 1017.08 1017.05 1016.87 1016.76 1016.48 1016.57 1016.79 1016.68 1016.84 1017.08 1017.18 1017.39 1017.51 1017.67 1017.86 1018.04 1018.19 1018.30 1018.46 1018.71 1018.76 1018.78 1018.91 1019.22 1019.64 1019.86 1019.96 1020.19 1020.53 1020.89 1021.15
1018.70 1018.66 1018.60 1018.33 1018.14 1017.99 1018.08 1018.16 1018.16 1017.88 1017.51 1017.12 1016.68 1016.60 1016.37 1016.40 1016.35 1016.20 1016.55 1016.47 1016.23 1016.52 1017.07 1017.19 1017.24 1017.55 1017.69 1017.79 1017.97 1017.96 1018.19 1018.39 1018.58 1018.70 1018.71 1018.95 1019.27 1019.58 1019.69 1019.92 1020.30 1020.60 1020.94
1018.80 1018.66 1018.51 1018.42 1018.05 1017.81 1017.69 1017.74 1017.66 1017.36 1017.16 1016.72 1016.88 1016.43 1016.13 1015.81 1016.23 1015.94 1015.89 1015.89 1015.61 1016.27 1016.57 1017.47 1017.39 1017.38 1017.64 1017.60 1017.71 1017.52 1017.68 1018.03 1018.22 1018.36 1018.36 1018.42 1018.86 1019.31 1019.34 1019.54 1019.83 1020.00 1020.29
1018.51 1018.46 1018.43 1018.08 1017.69 1017.25 1017.33 1017.37 1017.25 1017.12 1017.25 1017.16 1016.96 1016.54 1016.13 1015.84 1015.51 1015.55 1015.52 1015.42 1015.52 1015.86 1016.49 1016.58 1016.78 1016.74 1017.39 1017.39 1017.30 1017.17 1017.40 1017.56 1017.84 1017.97 1017.93 1017.98 1018.30 1018.62 1019.08 1019.17 1019.32 1019.71 1019.94
1018.22 1018.27 1018.22 1017.92 1017.49 1017.67 1017.52 1017.36 1017.38 1017.41 1017.41 1017.18 1016.86 1016.45 1016.04 1015.69 1015.48 1015.03 1015.43 1015.34 1015.13 1015.20 1015.85 1015.75 1015.63 1015.68 1016.44 1016.45 1016.59 1016.52 1017.29 1017.12 1017.69 1017.60 1017.59 1017.73 1018.02 1018.15 1018.47 1018.75 1018.93 1019.18 1019.64
1018.00 1018.11 1018.17 1018.03 1017.84 1017.92 1018.05 1017.91 1017.86 1017.66 1017.53 1017.22 1016.78 1016.35 1015.88 1015.38 1015.07 1014.84 1015.12 1014.97 1015.14 1015.37 1015.28 1015.29 1015.21 1015.43 1015.58 1016.06 1015.93 1016.18 1016.20 1016.43 1016.73 1016.92 1016.99 1017.10 1017.56 1017.83 1018.01 1018.19 1018.48 1018.67 1019.23
1017.97 1018.36 1018.36 1018.40 1018.30 1018.36 1018.15 1017.94 1017.90 1017.67 1017.29 1017.11 1017.07 1016.52 1015.91 1015.31 1015.14 1014.95 1014.98 1014.86 1015.17 1014.96 1014.82 1014.99 1015.04 1015.05 1015.06 1015.09 1015.36 1015.55 1015.71 1015.84 1015.96 1016.23 1016.44 1016.53 1016.91 1017.22 1017.55 1017.80 1018.05 1018.24 1018.58
1018.12 1018.28 1018.28 1018.17 1017.87 1018.04 1017.95 1017.88 1017.87 1017.94 1017.60 1017.22 1017.28 1017.30 1016.81 1016.09 1015.45 1015.08 1015.01 1014.93 1014.75 1014.49 1014.47 1014.38 1014.41 1014.29 1014.80 1014.54 1014.54 1014.80 1014.80 1014.78 1015.01 1015.21 1015.69 1015.95 1016.37 1016.68 1016.83 1017.21 1017.52 1017.73 1017.97
1017.99 1017.99 1017.79 1017.58 1017.64 1017.86 1017.83 1017.87 1017.82 1017.93 1017.91 1017.63 1017.29 1017.45 1017.26 1017.13 1016.57 1015.40 1014.98 1014.71 1014.58 1014.40 1014.23 1014.06 1013.83 1013.86 1014.14 1014.30 1014.00 1013.80 1013.81 1014.40 1014.60 1014.80 1015.01 1015.28 1015.69 1016.06 1016.42 1016.63 1016.87 1017.29 1017.62
1017.44 1017.49 1017.43 1017.35 1017.32 1017.32 1017.56 1017.67 1017.61 1017.72 1017.62 1017.61 1017.32 1017.20 1017.00 1016.96 1016.97 1016.55 1015.51 1014.97 1014.79 1014.42 1013.94 1013.55 1013.36 1013.35 1013.62 1013.72 1013.63 1013.65 1013.53 1013.66 1014.05 1014.44 1014.64 1014.76 1015.17 1015.55 1015.95 1016.10 1016.42 1016.63 1017.00
1017.67 1017.50 1017.25 1017.69 1017.56 1017.27 1017.20 1017.34 1017.39 1017.19 1017.25 1017.30 1017.15 1017.12 1017.00 1016.95 1016.86 1017.00 1016.71 1015.81 1014.85 1014.44 1014.04 1013.53 1013.27 1013.19 1013.49 1013.52 1013.57 1013.45 1013.56 1013.69 1014.01 1014.45 1014.42 1014.21 1014.49 1014.88 1015.13 1015.47 1015.81 1016.15 1016.38
1017.35 1017.10 1017.32 1017.19 1017.04 1016.59 1016.72 1017.06 1017.08 1016.71 1016.79 1016.75 1016.75 1016.90 1016.96 1017.05 1017.04 1017.01 1016.86 1016.29 1015.79 1014.86 1014.29 1013.85 1013.74 1013.98 1013.99 1013.89 1013.64 1013.55 1013.64 1013.65 1013.80 1013.81 1013.66 1013.67 1013.88 1014.10 1014.56 1014.91 1015.16 1015.40 1015.88
1017.42 1017.33 1017.29 1016.91 1016.43 1015.02 1015.62 1016.82 1017.09 1016.82 1016.58 1016.66 1016.62 1016.61 1016.88 1016.92 1016.75 1016.66 1016.64 1016.45 1016.18 1015.25 1014.66 1014.39 1014.29 1013.88 1013.84 1013.89 1013.68 1013.80 1013.85 1013.85 1013.88 1013.68 1013.58 1013.41 1013.50 1013.75 1014.11 1014.31 1014.42 1014.64 1015.01
1017.00 1016.86 1017.09 1016.78 1016.28 1015.46 1016.07 1016.83 1017.13 1016.79 1016.57 1016.73 1016.74 1016.67 1016.85 1016.98 1016.73 1016.64 1016.74 1016.70 1016.47 1016.03 1015.51 1015.17 1014.48 1014.14 1013.87 1013.95 1013.89 1013.76 1013.75 1013.91 1013.74 1013.55 1013.46 1013.41 1013.34 1013.42 1013.57 1013.87 1014.13 1014.30 1014.43
1016.82 1016.63 1016.87 1017.10 1016.70 1016.74 1016.74 1017.04 1017.16 1016.98 1016.99 1017.17 1017.03 1017.07 1017.21 1017.28 1016.98 1016.88 1016.72 1016.71 1016.78 1016.69 1016.37 1015.67 1015.07 1014.46 1014.05 1013.71 1013.56 1013.69 1013.99 1014.10 1013.66 1013.50 1013.38 1013.25 1013.26 1013.38 1013.44 1013.65 1013.88 1014.06 1014.37
1017.26 1017.25 1017.25 1017.12 1017.07 1017.13 1016.91 1017.20 1017.48 1017.65 1017.56 1017.81 1017.92 1017.85 1017.99 1017.67 1017.48 1017.26 1017.08 1017.10 1016.94 1016.84 1016.79 1016.23 1015.70 1015.18 1014.55 1014.23 1014.10 1014.21 1014.17 1013.98 1014.05 1014.02 1013.94 1014.06 1014.11 1014.19 1014.05 1014.06 1013.94 1014.09 1014.07
1017.65 1017.75 1017.78 1017.76 1017.79 1017.84 1017.91 1017.87 1018.03 1018.27 1018.45 1018.69 1018.75 1018.70 1018.57 1018.34 1018.14 1017.91 1017.74 1017.44 1017.08 1016.83 1016.86 1016.47 1016.14 1015.64 1015.44 1015.11 1014.94 1014.83 1014.86 1014.76 1014.68 1014.57 1014.54 1014.20 1014.23 1014.19 1014.25 1014.26 1014.19 1014.31 1014.02
1018.21 1018.31 1018.54 1018.60 1018.54 1018.53 1018.67 1018.79 1018.87 1019.09 1019.36 1019.41 1019.50 1019.31 1019.32 1019.00 1018.75 1018.63 1018.29 1017.99 1017.57 1017.15 1016.99 1017.08 1016.88 1016.68 1016.48 1016.26 1015.89 1015.59 1015.39 1015.25 1015.38 1015.02 1015.14 1014.85 1014.65 1014.77 1014.80 1014.92 1014.74 1014.57 1014.52
1018.63 1018.83 1019.08 1019.14 1019.15 1019.22 1019.18 1019.27 1019.42 1019.72 1019.92 1019.98 1019.97 1019.77 1019.69 1019.63 1019.45 1019.12 1018.85 1018.54 1018.26 1018.00 1017.74 1017.68 1017.81 1017.55 1017.34 1017.29 1016.87 1016.58 1016.35 1016.13 1015.78 1015.48 1015.47 1015.43 1015.22 1015.08 1015.06 1014.99 1014.93 1014.83 1014.61
1019.18 1019.62 1019.50 1019.58 1019.71 1019.69 1019.75 1019.76 1020.02 1020.31 1020.40 1020.40 1020.32 1020.24 1020.18 1019.97 1019.80 1019.71 1019.52 1019.26 1019.03 1018.81 1018.60 1018.43 1018.32 1018.32 1018.27 1018.02 1017.79 1017.65 1017.24 1016.80 1016.49 1016.00 1015.80 1015.69 1015.64 1015.38 1015.38 1015.23 1015.07 1014.90 1015.00
1019.84 1019.97 1020.07 1020.25 1020.31 1020.33 1020.39 1020.40 1020.51 1020.62 1020.71 1020.75 1020.71 1020.59 1020.48 1020.34 1020.16 1020.07 1019.84 1019.67 1019.43 1019.44 1019.25 1019.20 1019.13 1019.00 1018.96 1018.59 1018.54 1018.27 1017.91 1017.52 1016.90 1016.62 1016.42 1016.11 1015.99 1015.72 1015.46 1015.52 1015.51 1015.41 1015.24
1020.37 1020.54 1020.81 1020.89 1020.86 1020.69 1020.48 1020.43 1020.53 1020.92 1021.16 1021.24 1021.25 1021.06 1020.77 1020.56 1020.40 1020.38 1020.33 1020.03 1019.70 1019.70 1019.66 1019.63 1019.66 1019.59 1019.41 1019.25 1019.01 1018.78 1018.43 1018.11 1017.73 1016.78 1016.78 1016.65 1016.19 1016.01 1015.79 1015.69 1015.64 1015.67 1015.70
1020.87 1021.15 1021.29 1021.16 1021.15 1020.97 1020.70 1020.82 1020.96 1021.19 1021.37 1021.57 1021.54 1021.42 1021.19 1020.87 1020.51 1020.39 1020.33 1020.22 1020.11 1020.02 1019.89 1019.74 1019.74 1019.73 1019.71 1019.64 1019.35 1019.05 1018.71 1018.54 1018.21 1017.67 1017.45 1017.12 1016.59 1016.46 1016.11 1015.82 1015.79 1015.69 1015.61
1021.21 1021.40 1021.51 1021.50 1021.38 1021.35 1021.15 1021.19 1021.39 1021.61 1021.72 1021.83 1021.83 1021.81 1021.64 1021.44 1021.18 1020.91 1020.72 1020.58 1020.45 1020.35 1020.17 1019.99 1019.99 1019.91 1019.74 1019.55 1019.45 1019.38 1019.06 1018.65 1018.25 1018.02 1017.74 1017.90 1017.38 1016.91 1016.51 1016.32 1016.07 1015.84 1015.67
1021.46 1021.59 1021.67 1021.58 1021.40 1021.39 1021.37 1021.44 1021.70 1021.87 1022.05 1022.21 1022.23 1022.11 1021.88 1021.64 1021.46 1021.32 1021.33 1021.42 1021.00 1020.77 1020.27 1020.00 1019.76 1019.71 1019.64 1019.36 1019.11 1019.04 1019.24 1019.19 1019.12 1018.67 1018.26 1018.35 1018.00 1017.56 1017.06 1016.72 1016.31 1015.97 1015.68
1021.49 1021.66 1021.85 1021.78 1021.63 1021.51 1021.44 1021.49 1021.85 1022.07 1022.43 1022.46 1022.24 1022.21 1021.80 1021.81 1021.65 1021.61 1021.73 1021.84 1021.75 1021.65 1021.07 1020.56 1020.38 1020.07 1019.70 1019.46 1019.15 1019.18 1019.26 1019.59 1019.62 1019.17 1018.53 1018.60 1018.58 1018.43 1018.02 1017.10 1016.70 1016.12 1015.77
Wind_Speed
3 1 3 3 4 3 4 5 4 4 5 6 5 5 5 5 7 5 3 17 18 19 21 20 19 19 19 18 18 17 17 17 16 17 17 17 17 16 16 16 16 15 15
2 2 3 3 4 5 3 4 5 5 5 4 5 5 5 5 5 7 3 6 15 20 19 19 18 17 18 18 19 18 17 16 16 16 14 15 16 16 16 16 17 17 16
2 2 3 3 3 3 4 2 4 2 3 3 4 4 5 6 1 5 7 4 8 20 17 16 16 10 16 19 20 18 17 17 17 16 16 17 16 16 16 16 17 17 17
2 3 3 4 3 3 1 3 3 2 3 4 4 5 5 5 6 6 4 5 4 5 15 26 14 13 21 24 21 19 17 15 17 16 20 18 18 17 17 17 17 17 17
3 3 4 5 4 1 3 1 1 0 3 4 4 4 5 5 5 4 6 6 6 6 7 14 18 25 22 24 21 17 22 19 21 24 21 18 19 18 18 18 18 18 17
4 4 4 5 5 4 3 2 2 2 3 4 5 6 5 5 5 4 5 5 4 4 6 9 7 11 26 23 21 21 25 22 23 22 20 18 19 18 18 18 19 18 18
5 4 4 4 4 3 4 3 3 3 3 2 3 4 4 4 4 4 3 4 4 8 8 8 6 7 9 24 18 21 24 23 21 21 20 19 18 18 18 17 18 18 19
6 5 5 5 5 4 5 3 3 3 3 1 1 1 4 5 3 3 3 3 6 4 6 8 9 11 6 5 14 23 25 22 22 21 20 19 19 18 18 18 18 20 19
6 7 7 6 5 3 4 4 3 3 3 3 2 2 2 2 4 3 3 2 3 3 4 7 11 11 9 8 12 16 21 19 18 19 19 20 20 20 18 19 20 17 18
6 6 6 6 5 4 4 4 4 4 3 4 2 2 3 3 3 5 4 3 4 4 4 4 5 8 9 8 13 10 12 15 17 16 18 20 19 18 21 18 19 18 18
5 6 3 5 3 3 4 5 5 5 3 2 3 2 2 2 2 2 3 5 4 3 3 3 2 3 3 4 3 7 12 15 8 10 11 14 17 17 19 20 19 18 19
2 2 5 4 3 2 3 4 6 6 4 3 1 1 2 1 2 1 2 3 4 4 3 4 3 3 1 2 6 8 10 8 9 8 8 10 15 17 17 20 21 21 21
1 3 1 3 4 3 3 6 5 6 3 2 1 2 1 1 1 1 0 3 2 3 3 2 3 3 2 2 4 7 9 11 13 10 10 11 10 10 14 17 19 20 22
3 4 4 4 5 7 2 7 4 4 3 3 4 4 3 3 2 1 1 1 3 2 3 3 2 3 2 3 4 7 4 9 11 12 11 10 10 12 12 14 16 18 19
4 3 3 3 2 6 8 6 1 5 5 5 5 6 4 3 4 3 3 1 2 1 2 4 4 6 7 5 6 4 2 8 7 8 8 7 9 10 11 12 12 14 14
5 5 5 4 3 3 4 5 6 6 8 6 5 7 6 4 5 4 4 3 2 2 1 1 2 3 4 4 6 5 5 12 16 13 9 9 9 9 8 8 8 7 9
6 6 6 6 7 7 5 6 7 9 9 8 7 7 8 7 5 5 4 3 3 3 1 3 2 4 7 6 6 4 7 8 7 13 9 10 9 10 9 7 7 4 7
6 6 6 6 6 7 6 7 9 8 9 9 7 9 8 6 7 5 4 5 4 4 3 4 3 5 6 6 7 6 6 6 5 13 13 10 8 5 9 7 6 6 7
7 7 6 6 7 6 6 6 10 9 6 6 5 6 6 6 8 7 7 7 7 6 5 4 5 3 3 6 5 5 5 5 5 11 11 12 13 12 11 11 11 9 9
8 7 7 7 6 6 6 7 7 7 6 6 6 6 6 6 7 6 6 6 5 7 6 6 5 3 2 3 2 4 6 3 4 5 5 6 7 10 10 11 11 12 10
7 7 8 7 6 6 5 7 7 7 7 6 6 6 6 10 11 8 3 6 6 4 4 3 3 3 4 3 4 3 2 3 3 3 4 4 4 3 3 6 7 7 7
7 7 7 6 6 4 12 12 9 6 6 6 6 6 6 11 10 9 10 13 9 4 5 3 3 3 3 2 2 2 3 3 3 2 4 4 4 4 3 0 2 5 4
6 6 6 7 6 6 11 12 12 5 6 6 6 6 6 5 8 6 8 9 9 10 7 2 3 3 3 3 5 5 3 2 3 4 3 4 4 4 4 4 6 7 7
6 5 6 5 6 4 9 12 11 6 6 6 6 6 6 7 8 8 7 7 6 5 5 4 3 2 2 4 2 2 3 5 2 2 4 3 3 3 3 3 8 8 10
5 4 4 5 6 4 11 12 7 5 6 5 4 5 6 7 10 12 8 7 7 6 6 8 7 6 7 8 7 4 5 5 4 3 4 3 4 4 3 3 4 6 6
5 5 6 5 5 7 11 12 7 4 5 4 5 7 10 8 9 8 7 6 8 7 6 7 8 7 7 6 6 2 0 2 2 4 3 3 4 4 5 3 4 4 4
Wind_Direction
74 8 269 243 250 251 246 261 263 281 282 263 256 238 259 232 230 213 186 217 218 213 224 223 220 220 220 221 220 221 221 224 220 218 216 218 214 212 204 203 203 204 202
38 17 312 262 253 229 263 242 262 249 241 267 281 305 287 268 219 211 208 237 230 220 225 229 223 227 230 225 225 221 224 223 220 219 217 220 217 213 210 206 204 206 203
262 5 328 321 254 192 146 182 224 240 278 283 300 303 292 277 200 210 203 221 213 214 218 238 237 257 265 242 233 224 221 223 221 218 218 217 219 218 212 208 206 206 203
295 351 318 292 296 14 357 277 4 349 314 295 285 287 286 284 266 213 216 213 200 189 190 233 227 212 248 250 245 240 230 230 233 223 219 218 215 216 220 213 209 211 208
293 308 306 301 312 39 282 328 309 230 289 279 276 286 270 274 283 262 177 175 203 197 177 214 187 215 235 248 240 227 252 227 229 228 225 221 219 214 216 214 211 209 216
272 276 283 301 331 321 310 338 304 279 254 289 310 302 285 270 264 234 188 208 209 215 185 191 211 223 234 246 244 226 236 223 229 233 223 216 220 221 217 215 216 208 214
284 299 316 329 311 306 274 284 270 302 307 313 338 315 310 336 303 284 185 246 175 205 200 208 214 228 232 238 233 235 234 232 230 230 222 220 222 218 216 216 216 211 212
293 302 292 291 277 284 307 308 297 320 292 308 283 330 336 331 315 276 270 261 243 230 225 228 221 231 225 218 227 236 232 230 232 227 224 221 223 222 217 216 215 213 214
258 242 249 248 275 258 280 286 300 234 272 301 231 181 335 290 347 323 336 319 2 243 209 204 227 227 216 215 237 242 231 238 246 233 233 224 222 222 220 217 220 213 218
261 263 258 254 255 263 273 269 263 258 251 273 309 205 237 192 236 323 318 317 321 342 310 243 252 221 197 213 227 233 230 230 221 229 238 234 233 222 221 219 220 212 217
262 273 265 20 358 323 291 275 287 262 244 256 210 266 264 312 227 212 292 318 328 311 296 282 253 234 162 216 231 228 216 220 204 215 248 237 229 226 227 220 218 219 222
318 50 72 67 22 38 330 314 301 263 251 255 261 246 260 255 276 291 277 290 271 316 344 14 23 49 99 206 222 226 226 240 257 272 295 247 233 223 221 218 222 224 230
52 323 92 180 239 200 289 311 294 312 295 309 295 278 302 276 254 257 266 285 300 311 331 11 354 330 198 222 240 222 232 258 268 272 275 252 234 228 221 222 219 224 230
195 115 238 237 275 329 310 295 285 286 15 36 38 31 21 23 37 21 263 278 326 332 328 320 277 349 30 202 234 265 286 289 260 242 253 241 224 228 224 221 226 235 238
296 325 215 226 263 303 274 275 326 33 41 27 41 42 40 15 33 18 15 46 162 339 311 322 352 0 357 358 340 30 349 326 300 290 260 237 232 237 238 226 226 230 239
73 65 51 65 78 64 63 67 62 52 62 43 36 42 30 12 20 13 11 8 34 132 292 262 325 308 344 359 42 31 51 53 36 21 8 8 1 332 319 319 284 278 266
80 74 67 55 50 54 45 62 66 60 56 46 34 39 30 16 20 9 3 3 19 34 59 307 313 322 16 16 19 30 48 44 31 26 34 55 59 56 55 63 62 65 67
73 77 72 68 61 57 51 69 74 68 74 65 46 50 35 28 31 14 12 16 18 7 16 14 352 6 31 6 22 32 23 42 38 45 33 39 42 23 74 58 55 74 70
83 68 69 71 65 60 68 68 93 87 73 69 65 60 45 35 35 20 23 27 23 21 12 50 16 357 30 19 353 9 6 360 12 34 35 40 48 70 74 79 68 59 52
80 81 71 71 62 56 61 69 71 81 78 62 48 37 40 44 38 20 33 28 24 39 36 46 42 17 6 338 9 2 355 350 352 357 11 32 52 61 66 70 74 72 51
86 77 75 64 60 54 67 77 78 74 74 63 44 40 42 47 45 41 46 28 40 37 29 40 42 32 8 6 9 325 323 314 312 6 340 346 357 359 32 58 70 66 68
81 78 70 76 70 58 88 87 83 78 69 68 57 33 31 33 33 54 51 51 58 59 43 45 24 34 358 318 319 341 333 2 336 338 12 325 13 355 336 267 44 24 23
103 95 80 77 73 61 85 83 89 82 81 69 62 46 45 33 42 49 47 39 38 45 62 109 76 11 359 336 339 332 340 329 293 327 355 328 354 333 351 0 9 9 0
108 103 94 90 97 82 110 104 92 85 80 71 70 66 57 32 24 39 38 36 20 23 18 11 19 338 301 323 11 295 285 298 343 349 19 350 337 304 342 6 7 8 353
108 100 108 88 84 87 145 122 105 82 77 61 52 57 62 42 30 36 43 25 15 12 358 3 340 330 334 339 351 13 10 26 346 329 1 8 339 316 339 334 336 340 339
121 115 92 80 60 82 133 136 125 105 70 39 26 18 12 21 27 40 53 33 32 352 12 16 5 7 355 332 338 41 35 44 335 336 296 25 346 4 340 299 309 326 326